| time (UTC) | temp F | wind direction | speed MPH | gust MPH | rain 1hr in | rain 24hr in | rain mn in | humidity % | barometer mb |
| 20260503175538 | 78 | 352 | 1.0 | 9.0 | 0.00 | 0.01 | 0.00 | 47 | 1010.8 |
| 20260503175038 | 78 | 5 | 3.0 | 9.0 | 0.00 | 0.01 | 0.00 | 48 | 1010.9 |
| 20260503174554 | 77 | 352 | 3.0 | 9.0 | 0.00 | 0.01 | 0.00 | 47 | 1011.0 |
| 20260503174039 | 76 | 33 | 2.0 | 9.0 | 0.00 | 0.01 | 0.00 | 50 | 1010.9 |
| 20260503173539 | 76 | 327 | 3.0 | 9.0 | 0.00 | 0.01 | 0.00 | 50 | 1010.9 |
| 20260503173051 | 76 | 345 | 3.0 | 8.0 | 0.00 | 0.01 | 0.00 | 50 | 1010.9 |
| 20260503172539 | 75 | 24 | 2.0 | 8.0 | 0.00 | 0.01 | 0.00 | 51 | 1011.0 |
| 20260503172039 | 75 | 40 | 4.0 | 8.0 | 0.00 | 0.01 | 0.00 | 52 | 1010.9 |
| 20260503171553 | 74 | 49 | 2.0 | 8.0 | 0.00 | 0.01 | 0.00 | 53 | 1011.0 |
| 20260503171038 | 74 | 318 | 3.0 | 8.0 | 0.00 | 0.01 | 0.00 | 54 | 1011.0 |
| 20260503170540 | 73 | 346 | 2.0 | 9.0 | 0.00 | 0.01 | 0.00 | 54 | 1011.1 |
| 20260503150538 | 53 | 0 | 0.0 | 0.0 | 0.00 | 0.01 | 0.00 | 94 | 1011.6 |
| 20260503131038 | 48 | 0 | 0.0 | 0.0 | 0.00 | 0.01 | 0.00 | 89 | 1011.5 |
| 20260503130538 | 48 | 0 | 0.0 | 0.0 | 0.00 | 0.01 | 0.00 | 89 | 1011.4 |
| 20260503110538 | 51 | 0 | 0.0 | 0.0 | 0.00 | 0.01 | 0.00 | 87 | 1011.6 |
| 20260503081554 | 55 | 0 | 0.0 | 0.0 | 0.00 | 0.01 | 0.00 | 84 | 1012.2 |
| 20260503081038 | 55 | 0 | 0.0 | 0.0 | 0.00 | 0.01 | 0.00 | 84 | 1012.2 |
| 20260503080538 | 55 | 0 | 0.0 | 0.0 | 0.00 | 0.01 | 0.00 | 84 | 1012.2 |
| 20260503072539 | 57 | 0 | 0.0 | 0.0 | 0.00 | 0.01 | 0.00 | 82 | 1012.2 |
| 20260503072041 | 57 | 0 | 0.0 | 0.0 | 0.00 | 0.01 | 0.00 | 82 | 1012.3 |
| 20260503071603 | 57 | 0 | 0.0 | 0.0 | 0.00 | 0.01 | 0.00 | 82 | 1012.2 |
| 20260503071038 | 57 | 0 | 0.0 | 1.0 | 0.00 | 0.01 | 0.00 | 82 | 1012.2 |
| 20260503070539 | 57 | 0 | 0.0 | 1.0 | 0.00 | 0.01 | 0.00 | 82 | 1012.2 |
| 20260503055039 | 61 | 0 | 0.0 | 0.0 | 0.00 | 0.01 | 0.01 | 77 | 1012.3 |
| 20260503054606 | 61 | 0 | 0.0 | 0.0 | 0.00 | 0.01 | 0.01 | 77 | 1012.3 |
| 20260503054038 | 61 | 0 | 0.0 | 0.0 | 0.00 | 0.01 | 0.01 | 77 | 1012.4 |
| 20260503053539 | 61 | 0 | 0.0 | 3.0 | 0.00 | 0.01 | 0.01 | 76 | 1012.3 |
| 20260503053043 | 62 | 0 | 0.0 | 4.0 | 0.00 | 0.01 | 0.01 | 76 | 1012.2 |
| 20260503052539 | 62 | 203 | 1.0 | 4.0 | 0.00 | 0.01 | 0.01 | 76 | 1012.2 |
| 20260503052038 | 62 | 0 | 0.0 | 2.0 | 0.00 | 0.01 | 0.01 | 76 | 1012.2 |
| 20260503051549 | 62 | 0 | 0.0 | 2.0 | 0.00 | 0.01 | 0.01 | 75 | 1012.2 |
| 20260503051038 | 62 | 103 | 0.0 | 3.0 | 0.00 | 0.01 | 0.01 | 75 | 1012.2 |
| 20260503050538 | 62 | 0 | 0.0 | 3.0 | 0.00 | 0.01 | 0.01 | 75 | 1012.2 |
| 20260503050055 | 62 | 202 | 0.0 | 4.0 | 0.00 | 0.01 | 0.01 | 75 | 1012.2 |
| 20260503045542 | 63 | 331 | 1.0 | 6.0 | 0.00 | 0.01 | 0.01 | 75 | 1012.3 |
| 20260503045038 | 63 | 61 | 2.0 | 6.0 | 0.00 | 0.01 | 0.01 | 75 | 1012.4 |
| 20260503044549 | 63 | 73 | 3.0 | 6.0 | 0.00 | 0.01 | 0.01 | 74 | 1012.4 |
| 20260503044040 | 63 | 71 | 1.0 | 3.0 | 0.00 | 0.01 | 0.01 | 74 | 1012.1 |
| 20260503043538 | 63 | 0 | 0.0 | 4.0 | 0.00 | 0.01 | 0.01 | 74 | 1012.0 |
| 20260503043054 | 63 | 0 | 0.0 | 4.0 | 0.00 | 0.01 | 0.01 | 74 | 1012.0 |
| 20260503042538 | 63 | 181 | 2.0 | 3.0 | 0.00 | 0.01 | 0.01 | 74 | 1011.9 |
| 20260503042038 | 63 | 127 | 1.0 | 4.0 | 0.00 | 0.01 | 0.01 | 74 | 1012.0 |
| 20260503041548 | 63 | 0 | 0.0 | 4.0 | 0.00 | 0.01 | 0.01 | 74 | 1011.8 |
| 20260503041037 | 63 | 331 | 1.0 | 4.0 | 0.00 | 0.01 | 0.01 | 74 | 1011.9 |
| 20260503040537 | 63 | 11 | 1.0 | 5.0 | 0.00 | 0.01 | 0.01 | 74 | 1011.9 |
| 20260503040051 | 63 | 360 | 2.0 | 5.0 | 0.00 | 0.01 | 0.01 | 73 | 1012.0 |
| 20260503035538 | 63 | 317 | 3.0 | 8.0 | 0.00 | 0.01 | 0.01 | 73 | 1012.1 |
| 20260503035039 | 64 | 28 | 1.0 | 8.0 | 0.00 | 0.01 | 0.01 | 73 | 1012.1 |
| 20260503034549 | 64 | 360 | 4.0 | 8.0 | 0.00 | 0.01 | 0.01 | 71 | 1012.1 |
| 20260503034038 | 64 | 43 | 0.0 | 2.0 | 0.00 | 0.01 | 0.01 | 71 | 1012.1 |
| 20260503033540 | 65 | 0 | 0.0 | 3.0 | 0.00 | 0.01 | 0.01 | 70 | 1011.9 |
| 20260503033042 | 65 | 15 | 1.0 | 3.0 | 0.00 | 0.01 | 0.01 | 70 | 1011.8 |
| 20260503032538 | 65 | 48 | 0.0 | 2.0 | 0.00 | 0.01 | 0.01 | 69 | 1011.8 |
| 20260503032038 | 65 | 89 | 0.0 | 2.0 | 0.00 | 0.01 | 0.01 | 69 | 1011.7 |
| 20260503031549 | 65 | 0 | 0.0 | 3.0 | 0.00 | 0.01 | 0.01 | 69 | 1011.7 |
| 20260503031039 | 65 | 0 | 0.0 | 3.0 | 0.00 | 0.01 | 0.01 | 68 | 1011.6 |
| 20260503030538 | 66 | 100 | 1.0 | 3.0 | 0.00 | 0.01 | 0.01 | 68 | 1011.5 |
| 20260503030050 | 66 | 344 | 1.0 | 4.0 | 0.00 | 0.01 | 0.01 | 68 | 1011.5 |
| 20260503025539 | 66 | 0 | 0.0 | 4.0 | 0.00 | 0.01 | 0.01 | 68 | 1011.7 |
| 20260503025039 | 66 | 337 | 2.0 | 4.0 | 0.00 | 0.01 | 0.01 | 67 | 1011.6 |
| 20260503024547 | 66 | 191 | 0.0 | 3.0 | 0.00 | 0.01 | 0.01 | 67 | 1011.8 |
| 20260503024038 | 66 | 302 | 1.0 | 6.0 | 0.00 | 0.01 | 0.01 | 67 | 1011.7 |
| 20260503023538 | 67 | 239 | 0.0 | 8.0 | 0.00 | 0.01 | 0.01 | 66 | 1011.9 |
| 20260503023047 | 67 | 180 | 2.0 | 9.0 | 0.00 | 0.01 | 0.01 | 66 | 1012.1 |
| 20260503022538 | 67 | 165 | 3.0 | 14.0 | 0.00 | 0.01 | 0.01 | 66 | 1012.1 |
| 20260503022038 | 67 | 172 | 3.0 | 14.0 | 0.00 | 0.01 | 0.01 | 65 | 1012.2 |
| 20260503021545 | 68 | 146 | 4.0 | 12.0 | 0.00 | 0.01 | 0.01 | 65 | 1012.3 |
| 20260503021038 | 68 | 175 | 5.0 | 16.0 | 0.00 | 0.01 | 0.01 | 65 | 1012.4 |
| 20260503020538 | 68 | 217 | 3.0 | 17.0 | 0.00 | 0.01 | 0.01 | 65 | 1012.4 |
| 20260503020048 | 69 | 150 | 8.0 | 17.0 | 0.00 | 0.01 | 0.01 | 64 | 1012.3 |
| 20260503015541 | 69 | 161 | 6.0 | 14.0 | 0.00 | 0.01 | 0.01 | 63 | 1012.1 |
| 20260503015038 | 70 | 165 | 2.0 | 9.0 | 0.00 | 0.01 | 0.01 | 63 | 1011.7 |
| 20260503014559 | 70 | 169 | 5.0 | 9.0 | 0.00 | 0.01 | 0.01 | 62 | 1011.4 |
| 20260503014038 | 70 | 0 | 2.0 | 5.0 | 0.00 | 0.01 | 0.01 | 61 | 1011.4 |
| 20260503013538 | 70 | 157 | 1.0 | 5.0 | 0.00 | 0.01 | 0.01 | 60 | 1011.3 |
| 20260503013046 | 70 | 210 | 1.0 | 5.0 | 0.00 | 0.01 | 0.01 | 60 | 1011.2 |
| 20260503012538 | 70 | 155 | 2.0 | 4.0 | 0.00 | 0.01 | 0.01 | 60 | 1011.2 |
| 20260503012037 | 70 | 158 | 0.0 | 5.0 | 0.00 | 0.01 | 0.01 | 60 | 1011.2 |
| 20260503011548 | 71 | 128 | 2.0 | 6.0 | 0.00 | 0.01 | 0.01 | 60 | 1011.2 |
| 20260503011039 | 71 | 165 | 2.0 | 6.0 | 0.00 | 0.01 | 0.01 | 60 | 1011.2 |
| 20260503010539 | 71 | 188 | 0.0 | 5.0 | 0.00 | 0.01 | 0.01 | 60 | 1011.2 |
| 20260503010051 | 71 | 181 | 3.0 | 5.0 | 0.00 | 0.01 | 0.01 | 59 | 1011.1 |
| 20260503005539 | 71 | 161 | 2.0 | 5.0 | 0.00 | 0.01 | 0.01 | 60 | 1011.2 |
| 20260503005039 | 71 | 0 | 1.0 | 5.0 | 0.00 | 0.01 | 0.01 | 59 | 1011.1 |
| 20260503004551 | 71 | 229 | 0.0 | 4.0 | 0.00 | 0.01 | 0.01 | 58 | 1011.1 |
| 20260503004039 | 71 | 0 | 0.0 | 6.0 | 0.00 | 0.01 | 0.01 | 59 | 1011.0 |
| 20260503003538 | 71 | 0 | 2.0 | 6.0 | 0.00 | 0.01 | 0.01 | 59 | 1011.1 |
| 20260503003051 | 72 | 243 | 1.0 | 7.0 | 0.00 | 0.01 | 0.01 | 59 | 1011.1 |
| 20260503002538 | 72 | 160 | 3.0 | 7.0 | 0.00 | 0.01 | 0.01 | 57 | 1011.1 |
| 20260503002038 | 72 | 217 | 1.0 | 7.0 | 0.00 | 0.01 | 0.01 | 57 | 1011.1 |
| 20260503001550 | 72 | 165 | 1.0 | 7.0 | 0.00 | 0.01 | 0.01 | 58 | 1011.1 |
| 20260503001038 | 72 | 267 | 2.0 | 7.0 | 0.00 | 0.01 | 0.01 | 57 | 1011.1 |
| 20260503000538 | 72 | 199 | 2.0 | 6.0 | 0.00 | 0.01 | 0.01 | 59 | 1011.2 |
| 20260503000048 | 72 | 171 | 2.0 | 9.0 | 0.00 | 0.01 | 0.01 | 58 | 1011.1 |
| 20260502235538 | 72 | 227 | 2.0 | 9.0 | 0.00 | 0.01 | 0.01 | 57 | 1011.2 |
| 20260502235038 | 72 | 219 | 2.0 | 8.0 | 0.00 | 0.01 | 0.01 | 57 | 1011.2 |
| 20260502234554 | 73 | 224 | 3.0 | 8.0 | 0.00 | 0.01 | 0.01 | 56 | 1011.3 |
| 20260502234039 | 73 | 239 | 3.0 | 7.0 | 0.00 | 0.01 | 0.01 | 55 | 1011.3 |
| 20260502233539 | 73 | 175 | 1.0 | 7.0 | 0.00 | 0.01 | 0.01 | 57 | 1011.4 |
| 20260502233048 | 73 | 235 | 2.0 | 8.0 | 0.00 | 0.01 | 0.01 | 57 | 1011.5 |
| 20260502232538 | 73 | 275 | 2.0 | 8.0 | 0.00 | 0.01 | 0.01 | 56 | 1011.5 |
| 20260502232038 | 73 | 236 | 2.0 | 8.0 | 0.00 | 0.01 | 0.01 | 57 | 1011.6 |
| 20260502231548 | 72 | 173 | 1.0 | 8.0 | 0.00 | 0.01 | 0.01 | 57 | 1011.6 |
| 20260502231038 | 73 | 159 | 4.0 | 8.0 | 0.00 | 0.01 | 0.01 | 56 | 1011.7 |
| 20260502230538 | 73 | 211 | 1.0 | 8.0 | 0.00 | 0.01 | 0.01 | 56 | 1011.7 |
| 20260502230052 | 73 | 230 | 1.0 | 9.0 | 0.00 | 0.01 | 0.01 | 57 | 1011.7 |
| 20260502225538 | 73 | 200 | 4.0 | 9.0 | 0.00 | 0.01 | 0.01 | 55 | 1011.8 |
| 20260502225038 | 73 | 155 | 2.0 | 7.0 | 0.00 | 0.01 | 0.01 | 54 | 1011.9 |
| 20260502224550 | 73 | 247 | 2.0 | 7.0 | 0.00 | 0.01 | 0.01 | 56 | 1012.0 |
| 20260502224038 | 73 | 211 | 3.0 | 6.0 | 0.00 | 0.01 | 0.01 | 56 | 1012.1 |
| 20260502223538 | 73 | 187 | 2.0 | 7.0 | 0.00 | 0.01 | 0.01 | 57 | 1012.2 |
| 20260502223047 | 72 | 199 | 3.0 | 7.0 | 0.00 | 0.01 | 0.01 | 58 | 1012.3 |
| 20260502222539 | 72 | 221 | 2.0 | 7.0 | 0.00 | 0.01 | 0.01 | 57 | 1012.4 |
| 20260502222037 | 72 | 198 | 3.0 | 7.0 | 0.00 | 0.01 | 0.01 | 58 | 1012.5 |
| 20260502221555 | 72 | 167 | 2.0 | 6.0 | 0.00 | 0.01 | 0.01 | 58 | 1012.6 |
| 20260502221038 | 72 | 235 | 2.0 | 6.0 | 0.00 | 0.01 | 0.01 | 57 | 1012.7 |
| 20260502220538 | 72 | 346 | 2.0 | 6.0 | 0.00 | 0.01 | 0.01 | 57 | 1012.7 |
| 20260502220051 | 72 | 220 | 1.0 | 6.0 | 0.00 | 0.01 | 0.01 | 57 | 1012.7 |
| 20260502215539 | 71 | 219 | 2.0 | 6.0 | 0.00 | 0.01 | 0.01 | 59 | 1012.9 |
| 20260502215038 | 71 | 186 | 2.0 | 5.0 | 0.00 | 0.01 | 0.01 | 59 | 1012.9 |
| 20260502214559 | 71 | 196 | 1.0 | 5.0 | 0.00 | 0.01 | 0.01 | 60 | 1013.0 |
| 20260502214038 | 71 | 145 | 2.0 | 4.0 | 0.00 | 0.01 | 0.01 | 58 | 1013.1 |
| 20260502213538 | 70 | 191 | 0.0 | 6.0 | 0.00 | 0.01 | 0.01 | 59 | 1013.2 |
| 20260502213050 | 70 | 0 | 2.0 | 6.0 | 0.00 | 0.01 | 0.01 | 60 | 1013.2 |
| 20260502212538 | 70 | 196 | 1.0 | 9.0 | 0.00 | 0.01 | 0.01 | 59 | 1013.2 |
| 20260502212039 | 70 | 25 | 2.0 | 9.0 | 0.00 | 0.01 | 0.01 | 59 | 1013.3 |
| 20260502211549 | 70 | 265 | 1.0 | 4.0 | 0.00 | 0.01 | 0.01 | 61 | 1013.4 |
| 20260502211041 | 69 | 255 | 2.0 | 6.0 | 0.00 | 0.01 | 0.01 | 60 | 1013.5 |
| 20260502210539 | 69 | 173 | 1.0 | 6.0 | 0.00 | 0.01 | 0.01 | 61 | 1013.6 |
| 20260502210050 | 68 | 234 | 1.0 | 7.0 | 0.00 | 0.01 | 0.01 | 62 | 1013.6 |
| 20260502205540 | 68 | 351 | 1.0 | 7.0 | 0.00 | 0.01 | 0.01 | 61 | 1013.7 |
| 20260502205039 | 67 | 258 | 1.0 | 7.0 | 0.00 | 0.01 | 0.01 | 62 | 1013.8 |
| 20260502204557 | 67 | 288 | 2.0 | 6.0 | 0.00 | 0.01 | 0.01 | 63 | 1013.9 |
| 20260502204039 | 66 | 211 | 2.0 | 6.0 | 0.00 | 0.01 | 0.01 | 66 | 1014.0 |
| 20260502203539 | 66 | 290 | 2.0 | 5.0 | 0.00 | 0.01 | 0.01 | 66 | 1014.1 |
| 20260502203051 | 65 | 160 | 2.0 | 4.0 | 0.00 | 0.01 | 0.01 | 66 | 1014.2 |
| 20260502202537 | 64 | 155 | 1.0 | 5.0 | 0.00 | 0.01 | 0.01 | 66 | 1014.4 |
| 20260502202038 | 64 | 323 | 2.0 | 5.0 | 0.00 | 0.01 | 0.01 | 67 | 1014.4 |
| 20260502201550 | 64 | 344 | 2.0 | 5.0 | 0.00 | 0.01 | 0.01 | 69 | 1014.5 |
| 20260502201040 | 63 | 307 | 1.0 | 5.0 | 0.00 | 0.01 | 0.01 | 71 | 1014.5 |
| 20260502200539 | 62 | 0 | 1.0 | 6.0 | 0.00 | 0.01 | 0.01 | 74 | 1014.6 |
| 20260502200052 | 61 | 191 | 1.0 | 6.0 | 0.00 | 0.01 | 0.01 | 73 | 1014.6 |
| 20260502195538 | 61 | 71 | 1.0 | 6.0 | 0.00 | 0.01 | 0.01 | 75 | 1014.8 |
| 20260502195038 | 60 | 346 | 2.0 | 9.0 | 0.00 | 0.01 | 0.01 | 75 | 1014.8 |
| 20260502194551 | 60 | 53 | 2.0 | 9.0 | 0.00 | 0.01 | 0.01 | 75 | 1014.8 |
| 20260502194038 | 60 | 38 | 2.0 | 8.0 | 0.00 | 0.01 | 0.01 | 77 | 1014.7 |
| 20260502193539 | 59 | 5 | 1.0 | 8.0 | 0.00 | 0.01 | 0.01 | 80 | 1014.8 |
| 20260502193045 | 58 | 0 | 1.0 | 8.0 | 0.01 | 0.01 | 0.01 | 81 | 1015.0 |
| 20260502192537 | 57 | 5 | 3.0 | 8.0 | 0.01 | 0.01 | 0.01 | 82 | 1014.9 |
| 20260502192038 | 57 | 352 | 2.0 | 6.0 | 0.01 | 0.01 | 0.01 | 83 | 1014.9 |
| 20260502191544 | 56 | 240 | 2.0 | 6.0 | 0.01 | 0.01 | 0.01 | 83 | 1015.1 |
| 20260502191038 | 56 | 209 | 1.0 | 6.0 | 0.01 | 0.01 | 0.01 | 83 | 1015.3 |
| 20260502190539 | 56 | 0 | 1.0 | 8.0 | 0.01 | 0.01 | 0.01 | 83 | 1015.5 |
| 20260502190048 | 56 | 236 | 2.0 | 8.0 | 0.01 | 0.01 | 0.01 | 84 | 1015.6 |
| 20260502185538 | 56 | 234 | 2.0 | 7.0 | 0.01 | 0.01 | 0.01 | 85 | 1015.7 |
| 20260502185038 | 55 | 0 | 3.0 | 8.0 | 0.01 | 0.01 | 0.01 | 84 | 1015.5 |
| 20260502184556 | 55 | 190 | 2.0 | 8.0 | 0.01 | 0.01 | 0.01 | 83 | 1015.7 |
| 20260502184038 | 55 | 286 | 3.0 | 8.0 | 0.01 | 0.01 | 0.01 | 83 | 1015.5 |
| 20260502183539 | 55 | 229 | 2.0 | 7.0 | 0.01 | 0.01 | 0.01 | 82 | 1015.5 |
| 20260502183045 | 55 | 234 | 2.0 | 7.0 | 0.00 | 0.00 | 0.00 | 78 | 1015.3 |
| 20260502182538 | 55 | 267 | 1.0 | 7.0 | 0.00 | 0.00 | 0.00 | 77 | 1015.4 |
| 20260502182038 | 55 | 261 | 2.0 | 7.0 | 0.00 | 0.00 | 0.00 | 76 | 1015.4 |
| 20260502181546 | 55 | 227 | 2.0 | 8.0 | 0.00 | 0.00 | 0.00 | 76 | 1015.4 |
| 20260502181039 | 55 | 245 | 3.0 | 8.0 | 0.00 | 0.00 | 0.00 | 76 | 1015.4 |
| 20260502180539 | 55 | 232 | 2.0 | 7.0 | 0.00 | 0.00 | 0.00 | 76 | 1015.5 |